Weather History for KMUI - June, 2013

Change the Weather History Date:

Thursday, June 27, 2013

  Actual Average Record
Temperature  
Mean Temperature 75 °F -  
Max Temperature 85 °F 81 °F 93 °F (2010)
Min Temperature 66 °F 66 °F 54 °F (2012)
Cooling Degree Days 10    
Growing Degree Days 25 (Base 50)    
Moisture  
Dew Point 70 °F    
Average Humidity 95    
Maximum Humidity 100    
Minimum Humidity 58    
Precipitation  
Precipitation 2.58 in - - ()
Sea Level Pressure  
Sea Level Pressure 29.72 in    
Wind  
Wind Speed 2 mph (South)    
Max Wind Speed 39 mph    
Max Gust Speed 53 mph    
Visibility 5 miles    
Events Fog , Rain , Thunderstorm    
Averages and records for this station are not official NWS values.
T = Trace of Precipitation, MM = Missing Value Source: NWS Daily Summary

Daily Weather History Graph

Daily Weather History Graph

Search for Another Location

Airport or City:

Trip Planner

Search our weather history database for the weather conditions in past years. The results will help you decide how hot, cold, wet, or windy it might be!

Date:

Astronomy

Jun. 27, 2013 Rise Set
Actual Time 5:38 AM EDT 8:40 PM EDT
Civil Twilight 5:04 AM EDT 9:13 PM EDT
Nautical Twilight 4:22 AM EDT 9:55 PM EDT
Astronomical Twilight 3:33 AM EDT 10:45 PM EDT
Moon 11:35 PM EDT (6/27) 10:37 AM EDT (6/27)
Length of Visible Light 16h 08m
Length of Day
15h 02m
Waning Gibbous, 76% of the Moon is Illuminated
Jun 27
Waning Gibbous
Jun 30
Last Quarter
Jul 8
New
Jul 15
First Quarter
Jul 22
Full

Hourly Weather History & Observations

Time (EDT) Temp. Heat Index Dew Point Humidity Pressure Visibility Wind Dir Wind Speed Gust Speed Precip Events Conditions
12:58 AM 69.1 °F - 69.1 °F 100% 29.83 in 5.0 mi Calm Calm - N/A   Clear
1:06 AM 68.0 °F - 68.0 °F 100% 29.83 in 2.5 mi Calm Calm - N/A   Clear
1:08 AM 68.0 °F - 68.0 °F 100% 29.83 in 3.0 mi Calm Calm - N/A   Clear
1:14 AM 68.0 °F - 68.0 °F 100% 29.83 in 2.5 mi Calm Calm - N/A   Clear
1:18 AM 68.0 °F - 68.0 °F 100% 29.83 in 1.8 mi Calm Calm - N/A   Clear
1:20 AM 68.0 °F - 68.0 °F 100% 29.83 in 1.5 mi Calm Calm - N/A   Clear
1:26 AM 68.0 °F - 68.0 °F 100% 29.83 in 1.8 mi Calm Calm - N/A   Clear
1:28 AM 68.0 °F - 68.0 °F 100% 29.83 in 2.0 mi Calm Calm - N/A   Clear
1:29 AM 68.0 °F - 68.0 °F 100% 29.83 in 2.0 mi Calm Calm - N/A   Partly Cloudy
1:35 AM 68.0 °F - 68.0 °F 100% 29.83 in 3.0 mi Calm Calm - N/A   Scattered Clouds
1:37 AM 68.0 °F - 68.0 °F 100% 29.83 in 2.5 mi Calm Calm - N/A   Scattered Clouds
1:45 AM 68.0 °F - 68.0 °F 100% 29.82 in 1.8 mi Calm Calm - N/A   Partly Cloudy
1:51 AM 68.0 °F - 68.0 °F 100% 29.83 in 1.2 mi Calm Calm - N/A   Scattered Clouds
1:53 AM 68.0 °F - 68.0 °F 100% 29.83 in 1.0 mi Calm Calm - N/A   Mist
1:55 AM 68.0 °F - 68.0 °F 100% 29.82 in 0.8 mi Calm Calm - N/A   Mist
1:57 AM 68.0 °F - 68.0 °F 100% 29.83 in 0.5 mi Calm Calm - N/A Fog Fog
1:58 AM 68.0 °F - 68.0 °F 100% 29.83 in 0.5 mi Calm Calm - N/A Fog Fog
2:06 AM 68.0 °F - 68.0 °F 100% 29.83 in 0.5 mi Calm Calm - N/A Fog Fog
2:08 AM 68.0 °F - 68.0 °F 100% 29.83 in 0.8 mi Calm Calm - N/A   Mist
2:12 AM 68.0 °F - 68.0 °F 100% 29.82 in 1.2 mi Calm Calm - N/A   Scattered Clouds
2:14 AM 68.0 °F - 68.0 °F 100% 29.82 in 1.8 mi Calm Calm - N/A   Scattered Clouds
2:16 AM 66.2 °F - 66.2 °F 100% 29.82 in 3.0 mi Calm Calm - N/A   Mostly Cloudy
2:26 AM 68.0 °F - 68.0 °F 100% 29.82 in 3.0 mi Calm Calm - N/A   Scattered Clouds
2:28 AM 68.0 °F - 68.0 °F 100% 29.82 in 1.5 mi Calm Calm - N/A   Scattered Clouds
2:30 AM 68.0 °F - 68.0 °F 100% 29.82 in 1.0 mi Calm Calm - N/A   Mist
2:32 AM 66.2 °F - 66.2 °F 100% 29.82 in 0.8 mi Calm Calm - N/A   Mist
2:34 AM 66.2 °F - 66.2 °F 100% 29.82 in 0.5 mi Calm Calm - N/A Fog Fog
2:40 AM 66.2 °F - 66.2 °F 100% 29.82 in 0.8 mi ENE 1.2 mph - N/A   Mist
2:44 AM 66.2 °F - 66.2 °F 100% 29.82 in 1.0 mi East 1.2 mph - N/A   Mist
2:48 AM 68.0 °F - 68.0 °F 100% 29.82 in 1.2 mi Calm Calm - N/A   Partly Cloudy
2:50 AM 68.0 °F - 68.0 °F 100% 29.82 in 1.2 mi Calm Calm - N/A   Partly Cloudy
2:54 AM 66.2 °F - 66.2 °F 100% 29.82 in 1.2 mi Calm Calm - N/A   Partly Cloudy
2:56 AM 66.2 °F - 66.2 °F 100% 29.82 in 1.0 mi Calm Calm - N/A   Mist
2:58 AM 66.2 °F - 66.2 °F 100% 29.82 in 0.8 mi Calm Calm - N/A   Mist
3:02 AM 66.2 °F - 66.2 °F 100% 29.81 in 0.5 mi Calm Calm - N/A Fog Fog
3:20 AM 68.0 °F - 68.0 °F 100% 29.81 in 0.2 mi Calm Calm - N/A Fog Fog
3:58 AM 67.8 °F - 67.8 °F 100% 29.81 in 0.2 mi Calm Calm - N/A Fog Fog
4:58 AM 67.8 °F - 67.8 °F 100% 29.81 in 0.2 mi Calm Calm - N/A Fog Fog
5:58 AM 67.5 °F - 67.5 °F 100% 29.81 in 0.2 mi Calm Calm - N/A Fog Fog
6:58 AM 67.6 °F - 67.6 °F 100% 29.81 in 0.2 mi ENE 2.3 mph - N/A Fog Fog
7:44 AM 68.0 °F - 68.0 °F 100% 29.81 in 0.5 mi Calm Calm - N/A Fog Fog
7:46 AM 68.0 °F - 68.0 °F 100% 29.81 in 0.8 mi Calm Calm - N/A   Mist
7:48 AM 69.8 °F - 69.8 °F 100% 29.81 in 1.0 mi Calm Calm - N/A   Mist
7:50 AM 69.8 °F - 69.8 °F 100% 29.81 in 2.0 mi Calm Calm - N/A   Overcast
7:52 AM 69.8 °F - 69.8 °F 100% 29.81 in 3.0 mi Calm Calm - N/A   Overcast
7:58 AM 69.4 °F - 69.4 °F 100% 29.81 in 5.0 mi North 1.2 mph - N/A   Overcast
8:42 AM 69.8 °F - 69.8 °F 100% 29.81 in 5.0 mi Calm Calm - N/A   Mostly Cloudy
8:46 AM 69.8 °F - 69.8 °F 100% 29.81 in 6.0 mi Calm Calm - N/A   Mostly Cloudy
8:48 AM 69.8 °F - 69.8 °F 100% 29.81 in 6.0 mi Calm Calm - N/A   Scattered Clouds
8:58 AM 70.7 °F - 70.7 °F 100% 29.80 in 8.0 mi Calm Calm - N/A   Partly Cloudy
8:59 AM 69.8 °F - 69.8 °F 100% 29.80 in 9.0 mi Calm Calm - N/A Rain Light Rain
9:00 AM 69.8 °F - 69.8 °F 100% 29.80 in 9.0 mi Calm Calm - N/A   Partly Cloudy
9:07 AM 71.6 °F - 71.6 °F 100% 29.80 in 9.0 mi Calm Calm - N/A Rain Light Rain
9:09 AM 71.6 °F - 71.6 °F 100% 29.80 in 9.0 mi Calm Calm - N/A   Clear
9:58 AM 73.8 °F - 73.8 °F 100% 29.78 in 9.0 mi ENE 3.5 mph - 0.00 in   Clear
10:04 AM 73.4 °F - 73.4 °F 100% 29.79 in 10.0 mi NE 2.3 mph - N/A Rain Light Rain
10:06 AM 73.4 °F - 73.4 °F 100% 29.79 in 10.0 mi ENE 2.3 mph - N/A   Clear
10:10 AM 75.2 °F - 75.2 °F 100% 29.78 in 10.0 mi ENE 2.3 mph - N/A Rain Light Rain
10:31 AM 77.0 °F - 73.4 °F 89% 29.78 in 10.0 mi ENE 3.5 mph - N/A   Partly Cloudy
10:58 AM 78.6 °F - 73.4 °F 84% 29.77 in 10.0 mi Calm Calm - 0.00 in   Partly Cloudy
11:26 AM 78.8 °F - 71.6 °F 78% 29.77 in 10.0 mi SE 5.8 mph - N/A   Mostly Cloudy
11:28 AM 78.8 °F - 73.4 °F 83% 29.77 in 10.0 mi Variable 4.6 mph - N/A   Mostly Cloudy
11:44 AM 80.6 °F 83.9 °F 69.8 °F 70% 29.76 in 10.0 mi Variable 6.9 mph - N/A   Mostly Cloudy
11:50 AM 80.6 °F 83.9 °F 69.8 °F 70% 29.76 in 10.0 mi ESE 8.1 mph - N/A   Mostly Cloudy
11:58 AM 82.4 °F 85.6 °F 68.7 °F 63% 29.75 in 10.0 mi SE 8.1 mph - N/A   Mostly Cloudy
12:58 PM 83.5 °F 86.2 °F 67.5 °F 58% 29.72 in 10.0 mi East 6.9 mph - N/A   Scattered Clouds
1:58 PM 83.7 °F 87.2 °F 69.1 °F 61% 29.70 in 10.0 mi SE 9.2 mph - N/A   Mostly Cloudy
2:32 PM 84.2 °F 88.4 °F 69.8 °F 62% 29.67 in 10.0 mi ESE 5.8 mph - N/A Rain Light Rain
2:42 PM 84.2 °F 88.4 °F 69.8 °F 62% 29.67 in 10.0 mi ESE 8.1 mph - N/A   Scattered Clouds
2:58 PM 83.5 °F 87.4 °F 69.6 °F 63% 29.66 in 10.0 mi SE 10.4 mph - 0.00 in   Scattered Clouds
3:58 PM 83.7 °F 87.7 °F 70.0 °F 63% 29.64 in 10.0 mi ESE 9.2 mph - N/A   Scattered Clouds
4:08 PM 84.2 °F 88.4 °F 69.8 °F 62% 29.63 in 10.0 mi ESE 9.2 mph - N/A Rain Light Rain
4:13 PM 84.2 °F 88.4 °F 69.8 °F 62% 29.62 in 10.0 mi SE 6.9 mph - N/A   Partly Cloudy
4:58 PM 82.6 °F 86.6 °F 70.3 °F 66% 29.61 in 10.0 mi SE 4.6 mph - 0.00 in Thunderstorm Partly Cloudy
5:13 PM 82.4 °F 86.3 °F 69.8 °F 66% 29.60 in 10.0 mi SE 5.8 mph - N/A Rain , Thunderstorm Light Rain
5:22 PM 78.8 °F - 68.0 °F 69% 29.61 in 7.0 mi ESE 9.2 mph 20.7 mph N/A Rain , Thunderstorm Light Thunderstorms and Rain
5:26 PM 75.2 °F - 69.8 °F 83% 29.64 in 1.8 mi South 10.4 mph 19.6 mph N/A Rain , Thunderstorm Heavy Thunderstorms and Rain
5:30 PM 73.4 °F - 71.6 °F 94% 29.64 in 0.2 mi SSW 17.3 mph 19.6 mph N/A Fog , Rain , Thunderstorm Heavy Thunderstorms and Rain
5:32 PM 73.4 °F - 71.6 °F 94% 29.63 in 0.2 mi SW 35.7 mph 33.4 mph N/A Fog , Rain , Thunderstorm Heavy Thunderstorms and Rain
5:33 PM 73.4 °F - 71.6 °F 94% 29.59 in 0.2 mi West 39.1 mph - N/A Fog , Rain , Thunderstorm Heavy Thunderstorms and Rain
5:38 PM 71.6 °F - 71.6 °F 100% 29.64 in 0.2 mi WNW 12.7 mph 52.9 mph N/A Fog , Rain , Thunderstorm Heavy Thunderstorms and Rain
5:46 PM 69.8 °F - 69.8 °F 100% 29.63 in 0.2 mi NW 8.1 mph 29.9 mph N/A Fog , Rain , Thunderstorm Heavy Thunderstorms and Rain
5:48 PM 69.8 °F - 69.8 °F 100% 29.64 in 0.5 mi WNW 8.1 mph 21.9 mph N/A Fog , Rain , Thunderstorm Heavy Thunderstorms and Rain
5:50 PM 69.8 °F - 69.8 °F 100% 29.64 in 0.8 mi West 6.9 mph 18.4 mph N/A Rain , Thunderstorm Heavy Thunderstorms and Rain
5:52 PM 69.8 °F - 69.8 °F 100% 29.63 in 0.5 mi Variable 3.5 mph - N/A Fog , Rain , Thunderstorm Heavy Rain
5:58 PM 70.2 °F - 70.2 °F 100% 29.63 in 0.5 mi NNW 8.1 mph - 2.32 in Fog , Rain , Thunderstorm Heavy Rain
6:02 PM 69.8 °F - 69.8 °F 100% 29.62 in 0.5 mi NNW 6.9 mph - N/A Fog , Rain , Thunderstorm Heavy Rain
6:04 PM 69.8 °F - 69.8 °F 100% 29.62 in 0.8 mi Variable 4.6 mph - N/A Rain , Thunderstorm Heavy Rain
6:06 PM 69.8 °F - 69.8 °F 100% 29.62 in 1.0 mi North 5.8 mph - N/A Rain , Thunderstorm Heavy Rain
6:08 PM 69.8 °F - 69.8 °F 100% 29.62 in 1.2 mi Variable 2.3 mph - N/A Rain , Thunderstorm Heavy Rain
6:10 PM 69.8 °F - 69.8 °F 100% 29.61 in 1.5 mi Variable 3.5 mph - N/A Rain , Thunderstorm Heavy Rain
6:12 PM 69.8 °F - 69.8 °F 100% 29.61 in 1.8 mi ENE 4.6 mph - N/A Rain , Thunderstorm Rain
6:14 PM 69.8 °F - 69.8 °F 100% 29.61 in 2.0 mi ENE 4.6 mph - N/A Rain , Thunderstorm Light Rain
6:16 PM 69.8 °F - 69.8 °F 100% 29.62 in 3.0 mi ENE 5.8 mph - N/A Rain , Thunderstorm Light Rain
6:24 PM 69.8 °F - 69.8 °F 100% 29.62 in 9.0 mi East 2.3 mph - N/A   Light Drizzle
6:27 PM 69.8 °F - 69.8 °F 100% 29.61 in 10.0 mi ENE 2.3 mph - N/A   Mostly Cloudy
6:33 PM 69.8 °F - 69.8 °F 100% 29.61 in 10.0 mi NNE 2.3 mph - N/A   Mostly Cloudy
6:55 PM 71.6 °F - 69.8 °F 94% 29.61 in 10.0 mi Variable 1.2 mph - N/A   Mostly Cloudy
6:58 PM 70.9 °F - 70.7 °F 99% 29.60 in 10.0 mi North 2.3 mph - 0.26 in   Mostly Cloudy
7:11 PM 71.6 °F - 69.8 °F 94% 29.60 in 10.0 mi ESE 2.3 mph - N/A   Light Drizzle
7:21 PM 71.6 °F - 71.6 °F 100% 29.61 in 10.0 mi Calm Calm - N/A   Mostly Cloudy
7:57 PM 71.6 °F - 71.6 °F 100% 29.61 in 10.0 mi West 3.5 mph - N/A   Overcast
7:58 PM 71.6 °F - 71.6 °F 100% 29.61 in 10.0 mi West 3.5 mph - 0.00 in   Overcast
8:02 PM 71.6 °F - 71.6 °F 100% 29.61 in 10.0 mi WNW 3.5 mph - N/A   Overcast
8:18 PM 71.6 °F - 71.6 °F 100% 29.61 in 10.0 mi WSW 5.8 mph - N/A   Overcast
8:58 PM 71.2 °F - 71.2 °F 100% 29.59 in 10.0 mi WSW 4.6 mph - N/A   Overcast
9:12 PM 71.6 °F - 71.6 °F 100% 29.60 in 10.0 mi SW 4.6 mph - N/A   Scattered Clouds
9:14 PM 71.6 °F - 71.6 °F 100% 29.60 in 10.0 mi SW 4.6 mph - N/A   Mostly Cloudy
9:24 PM 71.6 °F - 71.6 °F 100% 29.60 in 10.0 mi SW 4.6 mph - N/A   Mostly Cloudy
9:25 PM 71.6 °F - 71.6 °F 100% 29.60 in 10.0 mi SW 3.5 mph - N/A   Mostly Cloudy
9:35 PM 71.6 °F - 71.6 °F 100% 29.60 in 10.0 mi SW 3.5 mph - N/A   Overcast
9:39 PM 71.6 °F - 71.6 °F 100% 29.60 in 10.0 mi SW 4.6 mph - N/A   Overcast
9:47 PM 71.6 °F - 71.6 °F 100% 29.60 in 10.0 mi SW 3.5 mph - N/A   Overcast
9:49 PM 71.6 °F - 71.6 °F 100% 29.60 in 10.0 mi SW 4.6 mph - N/A   Overcast
9:58 PM 70.9 °F - 70.9 °F 100% 29.60 in 10.0 mi SW 3.5 mph - N/A   Overcast
10:04 PM 71.6 °F - 71.6 °F 100% 29.60 in 10.0 mi SW 4.6 mph - N/A   Mostly Cloudy
10:12 PM 71.6 °F - 71.6 °F 100% 29.60 in 10.0 mi SW 5.8 mph - N/A   Overcast
10:22 PM 71.6 °F - 71.6 °F 100% 29.60 in 10.0 mi SSW 5.8 mph - N/A   Mostly Cloudy
10:28 PM 71.6 °F - 71.6 °F 100% 29.60 in 10.0 mi SW 6.9 mph - N/A   Mostly Cloudy
10:36 PM 71.6 °F - 71.6 °F 100% 29.60 in 10.0 mi SW 8.1 mph - N/A   Overcast
10:48 PM 71.6 °F - 71.6 °F 100% 29.59 in 10.0 mi SSW 6.9 mph - N/A   Overcast
10:58 PM 71.1 °F - 71.1 °F 100% 29.59 in 10.0 mi SSW 9.2 mph - N/A   Overcast
11:06 PM 71.6 °F - 71.6 °F 100% 29.59 in 10.0 mi SSW 10.4 mph - N/A   Overcast
11:14 PM 71.6 °F - 71.6 °F 100% 29.59 in 10.0 mi SW 9.2 mph - N/A   Overcast
11:16 PM 71.6 °F - 71.6 °F 100% 29.59 in 10.0 mi SW 8.1 mph - N/A   Overcast
11:58 PM 70.9 °F - 70.9 °F 100% 29.58 in 10.0 mi SW 8.1 mph - N/A   Mostly Cloudy